This demonstration page uses our WeatherBlox Daily Observations layout. Learn more.

Left ArrowRight Arrow

Hourly Observations for July 29, 2018

Temp ( °F °C ) Dew Point ( °F °C ) Humidity (%) Winds ( mph kmh ) Pressure ( in mb ) Visibility ( mi km ) Precip ( " mm )
12:22 am 00:22 Cloudy with Light Rain 66 19 63 17 88 88 SSE 9 15 30.06 1018 10 16 0.00 0.00
12:53 am 00:53 Cloudy with Light Rain 65 18.3 64 17.8 97 97 ENE 6 9 30.10 1019 8 13 0.04 1.02
1:53 am 01:53 Clear 66 18.9 64 17.8 93 93 ESE 3 6 30.05 1018 10 16 0.00 0.03
2:14 am 02:14 Mostly Cloudy 66 18.9 65 18.3 96 96 ESE 6 9 30.06 1018 10 16 0.00 0.00
2:26 am 02:26 Cloudy 66 19 64 18 94 94 SE 6 9 30.06 1018 10 16 0.00 0.00
2:53 am 02:53 Cloudy 66 18.9 65 18.3 96 96 ENE 5 7 30.05 1018 10 16 0.00 0.00
3:36 am 03:36 Cloudy with Mist and Fog 64 18 64 18 100 100 NE 7 11 30.06 1018 6 10 0.00 0.00
3:53 am 03:53 Cloudy with Mist and Fog 65 18.3 65 18.3 100 100 NNE 8 13 30.04 1017 6 10 0.00 0.00
4:10 am 04:10 Cloudy with Mist and Fog 64 18 64 18 100 100 NNE 8 13 30.06 1018 5 8 0.00 0.00
4:27 am 04:27 Cloudy with Mist and Fog 65 18.3 65 18.3 100 100 NE 6 9 30.06 1018 5 8 0.00 0.00
4:37 am 04:37 Cloudy with Mist and Fog 65 18.3 65 18.3 100 100 NE 6 9 30.06 1018 5 8 0.00 0.00
4:48 am 04:48 Cloudy with Mist and Fog 66 19 64 18 94 94 NNE 7 11 30.06 1018 5 8 0.00 0.00
4:53 am 04:53 Cloudy with Mist and Fog 65 18.3 64 17.8 97 97 NE 8 13 30.07 1018 5 8 0.00 0.00
5:53 am 05:53 Cloudy with Mist and Fog 65 18.3 64 17.8 97 97 NE 7 11 30.08 1019 5 8 0.00 0.00
6:48 am 06:48 Cloudy with Mist and Fog 64 18 64 18 100 100 NNE 8 13 30.06 1018 3 5 0.00 0.00
6:53 am 06:53 Cloudy with Mist and Fog 65 18.3 64 17.8 97 97 NNE 7 11 30.09 1019 3 5 0.00 0.00
7:19 am 07:19 Mostly Cloudy with Mist and Fog 65 18.3 65 18.3 100 100 E 6 9 30.06 1018 4 6 0.00 0.00
7:42 am 07:42 Mostly Cloudy with Mist and Fog 66 19 64 18 94 94 E 8 13 30.06 1018 4 6 0.00 0.00
7:51 am 07:51 Mostly Cloudy with Mist and Fog 64 18 64 18 100 100 E 10 17 30.06 1018 3 5 0.00 0.00
7:53 am 07:53 Mostly Cloudy with Mist and Fog 65 18.3 64 17.8 97 97 E 13 20 30.09 1019 3 5 0.00 0.00
8:09 am 08:09 Cloudy with Mist and Fog 64 18 64 18 100 100 ENE 9 15 30.06 1018 3 4 0.00 0.00
8:25 am 08:25 Cloudy with Mist and Fog 65 18.3 64 17.8 97 97 ENE 12 19 30.06 1018 2 2 0.00 0.00
8:43 am 08:43 Cloudy with Mist and Fog 64 17.8 64 17.8 100 100 E 10 17 30.06 1018 3 5 0.00 0.00
8:53 am 08:53 Cloudy with Mist and Fog 65 18.3 63 17.2 93 93 E 9 15 30.11 1020 5 8 0.00 0.00
9:53 am 09:53 Cloudy with Mist and Fog 65 18.3 63 17.2 93 93 NE 5 7 30.14 1021 4 6 0.00 0.00
10:02 am 10:02 Cloudy with Mist and Fog 64 17.8 63 17.2 96 96 NNE 8 13 30.12 1020 2 3 0.00 0.00
10:14 am 10:14 Cloudy with Mist and Fog 64 18 63 17 94 94 NE 8 13 30.12 1020 4 6 0.00 0.00
10:53 am 10:53 Cloudy with Mist and Fog 66 18.9 64 17.8 93 93 E 6 9 30.13 1020 6 10 0.00 0.00
11:33 am 11:33 Mostly Cloudy 70 21.1 64 17.8 82 82 SE 7 11 30.06 1018 10 16 0.00 0.00
11:53 am 11:53 Partly Cloudy 72 22.2 64 17.8 76 76 NE 3 6 30.12 1020 10 16 0.00 0.00
12:48 pm 12:48 Mostly Cloudy 73 23 63 17 69 69 VRB 6 9 30.06 1018 10 16 0.00 0.00
12:53 pm 12:53 Mostly Cloudy 73 22.8 62 16.7 69 69 NNE 5 7 30.12 1020 10 16 0.00 0.00
1:28 pm 13:28 Partly Cloudy 76 24.4 63 17.2 64 64 ENE 6 9 30.03 1017 10 16 0.00 0.00
1:37 pm 13:37 Mostly Cloudy 75 23.9 64 17.8 69 69 N 10 17 30.03 1017 10 16 0.00 0.00
1:48 pm 13:48 Mostly Cloudy 73 23 63 17 69 69 NNW 8 13 30.06 1018 10 16 0.00 0.00
1:53 pm 13:53 Mostly Cloudy 76 24.4 64 17.8 67 67 N 8 13 30.11 1020 10 16 0.00 0.00
2:53 pm 14:53 Mostly Cloudy 77 25 63 17.2 62 62 NNE 8 13 30.09 1019 10 16 0.00 0.00
3:53 pm 15:53 Partly Cloudy 77 25 62 16.7 60 60 ENE 6 9 30.07 1018 10 16 0.00 0.00
4:53 pm 16:53 Partly Cloudy 77 25 62 16.7 60 60 NE 6 9 30.06 1018 10 16 0.00 0.00
5:53 pm 17:53 Mostly Sunny 77 25 61 16.1 58 58 NNE 6 9 30.06 1018 10 16 0.00 0.00
6:53 pm 18:53 Sunny 76 24.4 64 17.8 67 67 NE 9 15 30.05 1018 10 16 0.00 0.00
7:53 pm 19:53 Mostly Cloudy 73 22.8 64 17.8 74 74 NE 6 9 30.09 1019 10 16 0.00 0.00
8:53 pm 20:53 Partly Cloudy 70 21.1 64 17.8 82 82 ENE 8 13 30.07 1018 10 16 0.00 0.00
9:53 pm 21:53 Clear 70 21.1 64 17.8 82 82 ESE 5 7 30.08 1019 10 16 0.00 0.00
10:53 pm 22:53 Mostly Cloudy 68 20 64 17.8 87 87 E 3 6 30.12 1020 10 16 0.00 0.00
11:53 pm 23:53 Clear 68 20 63 17.2 84 84 ESE 5 7 30.11 1020 10 16 0.00 0.00

Powered by AerisWeather